Theta_e
345 346 348 348 347 348 348 347 348 347 346 344 341 340 340 339 340 340 340 341 341 341 340 341 341 342 341 340 340 339 339 345 346 346 347 346 345 345 346 347 347 345 345 344 344 345 345 347 345 346 346 345 344 343 343 344 343 341 339 338 338 337 338 337 336 336 335 335 335 335 337 336 333 332 333 331 329 333 334 332 332 332 333 334 336
343 347 349 348 347 348 347 346 347 347 346 344 340 338 339 339 339 339 340 340 341 342 341 344 344 343 343 342 342 342 344 346 345 345 346 346 346 344 347 346 346 345 344 344 343 346 346 345 345 344 344 344 343 344 344 343 342 340 340 338 338 338 337 336 335 334 334 334 335 334 334 333 335 336 332 332 330 328 332 330 330 329 331 331 333
346 347 348 347 348 348 346 347 347 345 344 343 340 338 338 339 340 340 340 340 344 345 344 345 345 345 345 344 344 344 344 345 345 345 344 345 345 345 345 346 345 344 343 344 343 343 343 343 344 343 343 343 343 344 343 341 340 340 339 339 338 338 337 336 335 333 333 332 333 333 332 329 331 332 332 331 331 327 328 328 329 328 327 327 330
345 347 348 348 348 348 347 347 346 345 344 342 340 338 338 339 340 342 342 343 344 344 344 344 344 344 345 345 345 345 344 345 345 345 344 344 344 345 345 345 344 344 344 343 342 341 341 341 341 342 342 342 341 341 340 340 340 340 339 339 339 338 336 335 334 333 332 331 332 332 331 332 331 331 333 332 332 330 329 329 331 330 328 326 326
346 347 347 348 347 348 347 347 345 344 343 341 340 338 338 339 340 342 343 343 343 344 344 344 344 345 344 345 346 346 345 344 345 344 344 344 345 345 345 345 344 343 342 341 341 340 340 340 340 340 340 341 341 340 339 338 339 339 339 339 338 338 335 334 332 331 331 331 330 333 331 331 332 331 334 335 338 332 330 329 330 330 328 328 328
345 347 347 347 347 347 347 347 344 342 343 341 340 339 339 340 341 342 343 343 343 343 344 344 345 344 344 343 343 344 344 344 345 344 344 344 344 343 343 342 342 341 340 340 339 337 337 337 338 339 338 337 336 337 339 338 337 336 335 336 337 337 335 333 331 330 330 329 329 330 330 332 330 330 335 336 336 336 334 331 332 332 331 330 332
346 347 347 347 346 346 347 345 343 341 341 341 341 339 340 340 341 342 343 343 343 343 344 344 344 344 344 344 344 343 343 344 343 344 343 342 341 341 341 340 340 339 339 338 338 337 336 336 336 336 336 337 336 335 335 332 332 331 332 334 335 335 335 332 330 329 329 330 331 330 329 331 332 331 333 337 336 336 337 336 334 334 334 336 336
347 347 347 347 346 346 345 344 343 341 341 341 340 340 340 340 341 342 342 343 344 343 344 344 345 344 344 344 344 343 343 344 344 343 341 341 341 340 340 339 339 338 337 336 336 336 335 334 335 334 334 335 335 334 333 332 332 330 331 331 331 333 333 331 330 329 327 329 330 330 330 330 331 331 331 335 337 337 337 338 339 340 336 337 337
346 346 346 346 346 344 344 344 344 342 341 341 341 341 341 341 342 342 343 343 343 344 344 343 343 343 344 345 344 344 343 342 342 342 341 341 340 338 337 337 337 337 336 334 334 334 333 332 333 334 334 335 335 334 333 332 331 332 331 331 330 331 330 330 329 329 329 329 328 329 330 329 329 330 329 333 336 337 338 337 338 338 337 337 338
345 346 347 346 346 344 344 344 344 343 342 341 341 341 341 342 343 343 343 342 343 344 343 343 343 344 342 342 342 342 343 341 342 342 341 340 339 338 336 336 336 336 335 333 332 332 333 331 331 331 332 333 332 330 329 330 329 330 330 330 329 330 328 329 328 329 327 327 328 329 330 328 328 329 329 333 334 335 335 334 335 338 339 340 339
345 346 348 347 348 343 343 344 344 343 342 342 341 341 343 343 343 343 342 342 343 343 342 342 343 343 342 342 342 342 342 341 341 341 341 341 339 338 337 335 334 334 334 333 331 332 331 331 330 329 328 329 331 329 331 330 329 328 328 327 327 327 327 328 331 329 329 328 327 328 327 330 328 329 330 332 333 334 333 334 334 335 337 338 341
345 346 346 347 346 342 342 343 343 343 342 341 342 343 342 343 342 342 342 342 342 342 342 342 342 342 342 342 341 342 341 340 341 341 341 341 340 338 338 336 335 334 334 332 332 331 331 330 331 330 330 327 326 326 327 328 329 329 328 328 328 328 327 328 329 330 331 329 329 329 329 327 327 326 330 331 332 333 334 334 334 335 336 337 336
345 345 345 344 346 341 341 342 342 343 343 343 343 342 342 342 342 342 342 342 341 341 341 342 342 342 341 341 340 341 342 341 341 341 340 340 339 339 338 337 336 335 334 333 333 331 330 330 331 331 331 330 329 327 328 328 327 329 329 328 329 328 330 330 329 331 331 331 330 330 330 331 330 329 331 332 332 332 333 334 335 335 335 335 335
343 344 345 345 345 345 340 340 341 342 343 343 342 342 341 342 342 341 341 340 339 338 338 339 340 340 341 341 341 341 341 341 340 340 340 340 340 339 339 338 337 337 335 336 333 332 331 330 331 330 330 330 331 332 331 329 329 330 332 330 329 330 330 332 332 331 331 331 331 330 331 331 331 331 332 334 333 333 333 333 334 335 335 335 335
344 345 346 344 343 345 342 339 340 341 342 342 342 342 341 341 341 341 340 339 339 339 338 337 337 338 338 338 338 340 340 341 341 341 341 340 339 335 334 334 335 336 337 336 336 330 331 330 330 330 329 329 330 331 331 331 331 332 333 332 332 332 330 329 329 330 330 330 331 331 332 332 331 332 333 334 334 334 334 334 335 335 335 335 334
346 343 344 343 343 344 343 342 338 338 339 340 340 341 342 341 342 340 340 340 340 339 338 337 337 337 337 336 336 336 337 338 341 341 341 340 337 336 334 332 332 332 333 333 332 333 332 332 333 332 331 330 330 330 330 331 331 331 332 334 334 332 330 330 330 330 329 330 330 330 331 331 332 333 334 334 334 334 334 334 335 335 334 335 335
345 345 346 342 343 341 341 342 340 336 337 338 338 339 342 343 342 342 341 340 341 339 338 337 337 339 339 337 336 336 338 338 342 340 339 337 336 336 336 335 333 333 333 332 331 332 332 332 332 332 331 331 330 331 331 331 331 333 333 333 332 331 330 329 331 330 329 330 331 331 331 332 332 334 335 335 335 334 334 334 334 334 334 335 335
345 343 343 341 341 341 340 342 342 342 343 340 337 338 339 341 340 341 341 342 341 339 338 339 338 339 340 340 340 339 338 338 337 337 336 336 335 335 335 335 335 335 335 333 333 332 332 332 333 333 333 332 331 331 332 333 334 335 334 333 331 329 328 326 333 331 331 332 332 333 332 332 333 335 336 336 336 336 337 337 336 335 335 336 335
342 344 342 340 340 340 339 340 340 340 340 340 343 342 336 337 338 339 340 339 337 336 336 335 335 336 335 336 337 337 337 337 335 335 335 335 336 334 334 334 334 335 334 334 334 334 334 334 334 334 334 335 335 335 335 336 336 335 333 332 329 327 325 329 333 333 333 331 332 332 333 333 334 336 336 336 336 337 337 337 338 338 335 335 336
342 342 340 340 340 339 339 339 339 339 340 340 341 343 337 334 335 336 336 335 334 333 332 332 332 331 331 330 331 335 335 336 332 335 333 332 333 331 333 333 334 335 336 336 336 336 336 336 336 336 336 335 336 336 336 336 335 334 331 329 327 324 334 333 333 333 333 332 332 333 333 333 335 336 337 336 337 338 337 338 338 338 338 337 336
340 341 339 338 339 339 338 338 338 338 340 340 340 341 342 334 334 333 332 332 332 332 330 328 328 327 328 325 330 335 335 336 337 334 333 336 326 327 328 329 331 333 334 336 336 336 337 336 337 337 337 337 336 335 334 334 334 332 329 327 324 334 333 333 333 332 332 332 332 333 332 334 335 336 337 337 338 338 338 337 338 337 336 337 337
336 338 338 339 338 339 339 338 338 339 339 340 340 342 344 338 341 341 341 336 333 332 336 338 339 339 328 335 338 335 335 335 335 336 335 337 334 325 326 328 329 331 332 334 334 334 335 336 336 336 336 335 332 336 333 333 330 330 328 323 332 333 333 333 333 332 333 333 333 334 333 333 335 336 338 338 338 339 339 338 337 338 338 337 337
333 336 337 337 338 339 340 337 338 339 339 340 340 342 342 341 342 341 341 336 340 339 338 338 340 339 339 339 337 338 338 337 337 335 336 328 334 325 326 327 328 329 330 331 332 332 332 332 332 332 332 332 336 335 334 335 335 329 326 334 334 334 334 334 334 333 333 334 334 333 332 333 335 336 337 338 339 338 338 337 338 338 338 338 338
323 329 334 337 340 339 340 341 340 340 339 339 340 340 341 342 341 342 342 340 339 337 335 335 336 337 338 338 340 339 338 338 336 334 335 336 335 328 328 327 329 328 327 334 333 331 331 332 330 329 333 334 336 335 334 335 334 334 335 334 334 334 334 334 334 334 334 334 334 332 331 332 334 334 336 337 338 338 338 338 337 337 338 338 338
320 323 324 325 327 330 339 341 342 341 341 340 340 340 341 340 341 338 335 332 328 326 326 326 326 329 333 337 339 338 337 337 336 335 335 336 337 336 336 336 336 337 329 338 337 337 336 337 337 335 336 336 336 336 336 335 334 335 335 334 334 335 334 334 334 334 335 335 335 331 330 330 332 332 335 336 337 337 337 338 337 338 337 337 338
317 315 317 321 322 326 332 340 341 341 340 339 338 339 339 335 328 326 326 325 323 321 321 321 322 323 326 331 334 334 335 335 334 333 331 332 331 332 332 333 332 332 332 335 336 336 337 337 337 337 336 336 336 336 336 335 335 335 335 336 335 335 335 334 334 334 335 335 336 328 328 328 329 332 334 336 336 337 337 338 338 338 338 338 338
314 311 315 319 321 326 331 338 339 338 338 337 335 332 329 326 323 322 322 318 317 316 316 317 317 320 321 326 328 330 329 329 328 327 327 328 328 329 329 330 329 329 330 331 332 333 335 335 336 335 335 335 335 336 336 336 335 335 335 336 335 335 334 334 334 334 335 335 333 327 327 328 328 331 332 334 336 336 337 337 338 338 338 338 338
311 310 313 317 321 323 331 337 335 329 327 329 328 326 325 322 318 316 314 312 313 312 313 314 316 316 318 320 323 324 325 322 320 320 321 324 324 326 327 325 323 324 325 326 329 329 329 331 333 334 333 334 333 334 334 335 335 335 335 334 334 333 334 334 334 334 334 335 335 330 325 327 328 330 331 333 335 335 336 337 337 338 338 338 338
305 307 311 314 317 321 326 326 326 324 323 322 320 319 317 317 317 314 311 311 310 309 309 310 311 312 313 315 317 319 319 318 317 319 316 317 318 319 320 319 318 317 319 318 320 321 323 325 328 328 330 331 332 332 333 334 334 334 333 333 333 333 333 333 334 334 334 334 334 331 324 326 327 328 330 331 333 334 335 336 337 337 338 338 338
302 306 309 311 314 317 318 320 319 317 315 313 313 312 311 311 312 312 310 308 308 308 308 307 308 308 307 308 309 311 313 313 313 312 311 311 311 313 313 312 311 311 312 312 313 316 317 320 322 325 328 328 328 326 327 327 325 326 327 329 329 328 330 332 332 333 333 333 334 333 325 324 325 327 328 329 331 332 333 334 335 336 338 338 338
301 304 307 309 310 312 311 312 314 312 312 309 308 306 306 306 307 308 308 307 306 305 304 304 305 305 305 305 305 306 307 309 309 309 308 307 307 308 309 309 307 306 308 309 311 312 314 314 316 320 323 321 318 318 318 318 317 318 321 323 325 328 328 331 332 332 332 331 332 332 332 324 324 326 328 330 331 331 331 332 333 335 336 337 338
299 301 305 307 307 307 308 308 309 309 308 307 307 308 303 303 303 303 303 303 304 304 303 302 302 301 302 303 303 304 305 305 306 307 307 306 306 307 307 307 306 306 308 308 308 310 311 311 313 318 318 314 313 311 313 312 313 315 318 320 323 325 325 328 331 331 328 329 331 332 332 331 325 324 326 328 328 327 329 331 332 333 334 335 335
299 300 303 303 303 304 306 305 306 305 305 305 304 308 303 301 301 301 301 302 301 300 300 301 301 300 300 300 301 301 301 302 304 306 306 305 305 305 304 305 306 306 307 307 308 309 309 309 310 314 312 311 310 308 311 309 310 312 315 316 320 319 321 327 329 329 322 327 328 330 331 330 326 323 324 324 325 323 327 330 330 330 330 331 332
297 299 301 301 302 303 302 303 304 303 303 302 302 302 301 302 301 300 300 299 299 298 298 298 299 299 298 298 298 299 299 300 302 303 303 303 302 302 301 302 303 304 304 304 304 306 307 307 308 310 309 306 306 306 306 306 307 309 311 313 314 316 320 327 327 318 317 322 324 328 329 323 319 324 325 321 321 320 325 327 325 327 328 327 326
298 296 298 300 300 300 300 300 304 300 301 300 300 300 300 299 298 298 297 298 297 296 296 296 296 297 298 297 297 297 298 299 301 301 301 301 300 300 300 300 302 302 302 302 302 304 306 305 305 307 306 305 305 305 304 305 305 306 309 311 311 314 321 325 314 311 315 319 320 325 322 312 312 322 315 316 313 314 322 318 316 320 324 319 319
295 295 297 299 300 300 300 298 299 298 298 299 299 299 298 297 297 297 295 296 295 294 294 294 294 294 295 296 296 296 297 298 299 300 300 300 300 299 299 300 301 301 301 301 301 301 303 304 304 305 303 302 302 301 303 303 305 306 308 309 310 313 321 318 308 306 313 316 318 322 312 306 313 315 308 304 303 308 320 312 311 317 318 314 315
293 294 294 296 299 299 302 299 296 296 296 296 296 296 295 294 294 293 293 293 292 292 292 293 293 292 293 294 295 295 295 296 298 299 299 299 299 299 299 300 300 300 300 299 299 300 301 302 301 303 302 299 300 300 301 302 304 305 307 306 308 313 322 317 305 303 312 313 316 315 305 303 313 308 302 300 304 313 313 307 309 314 310 310 311
292 292 293 294 295 298 297 300 298 296 296 295 294 294 293 293 293 292 292 291 291 291 292 292 292 292 292 292 294 295 294 295 296 298 298 299 299 298 298 298 299 299 298 298 298 299 300 300 299 300 300 298 297 299 299 301 303 305 305 305 307 312 320 313 301 302 308 309 310 308 303 303 312 303 300 301 305 312 301 304 310 310 307 308 309
291 291 292 293 294 295 296 296 296 296 295 294 293 292 292 292 291 291 291 290 290 290 290 290 291 291 291 292 293 294 294 294 295 296 297 297 297 297 296 297 297 296 297 297 297 297 298 298 297 298 299 298 297 299 299 300 302 304 305 304 306 310 318 308 299 301 306 306 305 304 302 304 307 301 299 301 307 303 300 304 302 300 301 306 309
291 291 291 292 292 293 294 294 295 295 297 293 292 291 291 291 290 290 289 289 289 290 290 289 290 290 291 291 292 293 293 293 293 294 295 296 295 295 295 295 295 295 294 294 294 295 295 296 297 296 296 297 298 299 299 299 302 301 303 305 306 308 313 303 297 299 305 301 304 302 299 303 302 297 297 301 305 299 300 301 299 299 302 304 308
291 292 290 290 290 291 291 292 295 294 293 293 293 291 289 289 289 289 287 288 288 288 288 288 288 289 290 290 291 291 292 293 292 293 293 294 294 294 294 293 294 293 293 292 294 294 294 295 295 296 294 294 295 297 297 297 297 296 301 303 305 307 310 301 296 296 303 299 303 300 298 301 297 295 297 301 299 296 298 298 298 300 301 304 306
289 290 290 290 291 291 291 292 294 295 291 291 291 290 289 289 288 288 288 288 288 287 287 288 288 289 289 289 290 290 291 291 291 292 292 292 292 292 292 291 292 292 292 292 292 293 293 293 294 294 295 293 293 296 294 292 292 291 294 297 301 302 306 299 295 294 301 298 300 297 298 298 294 294 297 300 295 295 297 297 298 300 302 303 308
288 289 289 290 290 291 291 292 293 294 294 291 290 289 290 289 288 287 286 286 288 289 288 289 289 288 288 288 289 289 290 290 290 290 290 291 291 291 290 291 290 291 290 290 291 291 291 291 292 291 292 294 293 295 293 290 288 291 295 295 294 294 300 300 294 294 298 296 299 296 296 295 293 294 297 295 293 295 295 296 298 300 302 304 307
287 288 288 288 288 290 290 290 291 292 294 294 290 289 288 288 288 288 287 287 287 288 288 288 288 287 286 287 287 288 288 289 289 289 289 289 290 290 290 290 290 290 290 289 289 289 290 290 291 291 291 291 292 292 294 291 289 289 287 289 292 293 289 290 289 293 297 295 296 294 295 293 293 294 296 292 293 293 294 296 297 300 302 305 303
286 286 287 287 288 288 289 289 291 291 289 291 291 290 288 287 287 287 288 287 288 287 286 286 287 286 286 285 285 287 287 287 288 288 288 288 289 289 289 289 289 289 289 288 288 288 289 289 290 290 290 290 290 291 292 291 289 290 289 288 288 287 286 287 289 292 294 293 295 294 294 292 292 292 293 292 293 293 293 295 297 299 301 300 298
285 286 286 287 287 288 288 289 289 290 287 289 289 288 287 287 287 286 285 284 283 284 284 284 284 284 284 285 285 286 286 286 287 287 287 287 287 288 289 288 288 288 288 288 288 288 288 288 289 290 289 291 290 290 288 290 290 290 290 290 290 286 285 287 289 285 291 294 293 293 293 292 291 292 292 292 292 292 293 295 295 298 297 296 296
285 286 286 286 286 287 287 288 288 289 287 287 288 287 285 285 285 284 284 284 282 283 284 285 284 284 285 284 284 285 285 285 285 286 286 286 286 287 287 287 287 287 288 287 287 287 287 288 289 289 289 290 290 288 287 287 289 290 290 291 291 290 290 288 285 286 284 288 291 290 291 291 291 291 291 291 291 291 292 293 293 296 294 293 293
285 286 285 285 285 285 286 286 288 288 288 287 285 286 285 285 284 284 284 283 283 283 284 284 285 285 284 284 284 284 284 284 284 285 285 286 286 286 286 286 286 286 286 286 286 286 287 288 288 289 289 289 289 287 286 286 285 286 289 289 290 291 291 290 290 286 284 283 285 290 291 290 290 291 290 290 290 290 291 291 292 293 292 292 293
285 284 284 285 285 285 285 286 286 286 287 286 287 287 285 284 284 284 283 283 283 283 284 284 284 284 283 283 283 283 283 284 284 284 284 285 285 285 285 285 285 285 285 285 286 286 286 286 286 286 287 287 288 288 286 286 286 285 287 287 289 288 289 289 289 288 284 282 283 284 285 288 289 290 289 290 290 291 291 291 292 292 291 291 293
285 285 285 285 285 285 284 284 283 285 286 285 285 283 283 283 282 283 282 282 283 283 284 283 283 283 283 283 283 283 283 283 283 284 284 284 284 284 284 284 284 284 285 284 285 285 285 285 286 286 286 286 287 287 286 286 287 287 287 287 286 286 287 287 286 286 285 286 282 282 284 284 283 286 289 288 289 290 291 290 291 291 290 291 292
284 284 284 284 284 284 284 283 283 285 285 284 283 282 282 282 282 282 282 282 282 282 282 282 282 283 282 282 282 282 282 282 282 283 283 283 283 284 283 284 284 284 284 284 283 284 284 285 285 286 286 285 285 286 286 286 286 286 286 286 285 285 284 284 284 284 284 282 282 282 283 284 284 283 286 288 288 289 290 290 290 290 289 290 291
Wind_Speed
11 12 12 15 14 13 15 16 16 16 16 15 14 14 14 14 13 12 11 10 10 10 10 11 11 11 11 11 10 10 11 12 11 11 11 10 11 12 13 15 15 16 15 14 14 14 15 16 16 16 16 16 15 15 14 16 14 14 13 13 12 12 13 13 13 13 12 11 10 10 10 8 7 7 7 8 7 6 7 6 7 3 3 6 10
14 13 11 13 15 14 15 16 16 16 16 15 14 13 14 14 13 12 11 9 9 10 11 11 11 11 12 12 11 10 10 12 12 12 13 14 15 14 16 16 16 15 15 14 15 16 16 14 14 13 14 13 13 14 15 14 14 13 13 12 12 12 12 12 12 12 12 11 11 9 9 7 7 8 7 7 7 6 5 5 4 6 3 5 5
14 13 12 14 15 14 15 16 17 16 15 15 14 13 13 13 13 12 11 10 10 9 10 11 11 11 11 11 11 11 11 12 13 13 12 14 15 15 16 16 15 15 15 15 15 16 15 14 13 13 12 12 12 13 13 13 12 12 13 12 12 11 11 12 11 11 11 11 9 5 3 3 6 6 5 6 5 5 4 5 6 6 4 4 3
14 12 13 13 12 13 16 16 16 15 15 15 14 13 12 13 13 12 11 12 10 10 9 10 10 9 10 10 10 10 11 13 14 14 14 14 15 15 16 15 14 14 14 14 13 13 12 12 11 11 11 11 11 12 12 12 12 12 12 11 11 11 11 11 11 10 9 9 7 7 3 3 2 3 6 3 4 3 3 3 3 5 5 3 4
14 13 13 13 14 13 14 14 15 15 15 15 14 13 13 12 12 11 11 11 9 9 9 9 9 10 10 10 10 10 10 12 13 14 14 14 14 15 14 14 14 14 13 13 13 12 12 11 11 10 10 11 12 12 11 12 12 12 12 11 10 11 11 11 11 10 8 5 5 6 4 3 2 3 4 5 7 2 1 1 2 2 1 1 1
13 12 12 13 13 13 13 13 14 14 15 15 14 13 12 13 13 12 12 10 10 9 8 8 9 10 10 10 10 10 11 12 12 13 13 13 13 14 14 13 13 13 13 13 12 12 11 10 10 9 9 10 10 11 12 12 12 11 10 10 10 10 10 10 10 9 7 4 3 2 3 4 4 1 6 6 4 5 4 3 4 3 3 1 4
14 11 12 12 11 13 12 12 13 14 15 15 14 12 12 12 12 10 10 8 8 9 8 10 10 9 11 11 10 10 10 11 12 12 13 13 13 13 13 12 12 12 12 12 12 12 12 11 10 9 9 9 10 10 11 10 8 8 8 8 9 9 9 9 8 7 7 6 3 3 3 4 3 2 5 7 6 3 5 7 5 5 3 4 3
11 10 11 11 11 12 12 13 13 14 15 15 14 13 12 11 10 10 8 8 9 9 10 11 12 12 12 11 12 12 12 12 12 13 12 13 13 12 12 12 12 12 13 13 14 14 13 12 11 9 9 8 8 9 7 8 8 7 8 7 7 7 8 7 6 3 2 3 3 3 3 4 4 3 4 7 7 6 5 5 8 11 6 3 5
11 11 10 11 12 13 12 13 13 15 15 15 14 13 12 11 11 10 9 10 11 11 12 12 11 12 12 13 13 12 12 11 13 13 12 13 13 12 12 11 11 12 13 13 12 11 11 10 10 10 9 8 9 9 9 7 7 6 5 5 7 8 7 5 4 6 3 3 3 3 3 5 5 4 3 7 9 9 5 5 3 6 7 5 6
12 11 10 10 12 12 11 12 13 15 15 14 14 12 12 12 12 10 11 11 12 12 11 12 12 11 12 12 11 11 12 12 12 12 12 12 12 11 11 11 11 11 11 11 11 10 10 9 9 8 7 8 7 6 6 7 7 7 6 6 6 6 6 2 3 3 4 3 3 3 2 5 5 5 6 9 9 9 9 10 9 8 7 8 7
11 9 10 11 14 11 12 12 12 14 15 14 13 12 11 11 12 11 11 12 13 12 12 12 12 12 12 12 11 11 11 9 10 10 11 11 11 10 10 11 10 9 9 8 9 10 9 7 6 7 7 6 6 6 7 5 5 5 6 5 5 3 2 2 9 3 3 4 4 3 1 4 5 4 7 11 11 10 10 10 10 10 10 8 11
11 10 10 10 14 12 12 11 11 12 14 13 13 12 12 12 12 12 12 14 14 14 14 13 13 12 12 11 10 9 11 9 9 9 10 9 10 9 9 9 8 8 8 7 7 7 8 6 9 7 7 5 3 3 4 5 6 5 4 3 5 2 1 3 6 3 3 4 4 4 4 5 5 4 7 9 11 12 11 11 11 11 11 11 11
10 10 11 12 13 11 12 11 11 11 12 13 13 13 13 12 14 15 15 15 14 13 13 13 13 12 12 11 11 10 9 9 9 10 10 9 9 8 8 7 7 7 6 5 6 4 6 6 7 5 5 4 3 3 5 6 6 6 5 3 3 1 4 3 5 5 4 5 5 5 5 4 5 4 8 9 10 11 12 12 12 13 13 13 13
10 12 11 12 10 12 11 11 11 10 13 13 13 14 14 15 15 15 15 14 13 13 12 12 11 11 11 11 10 10 10 10 9 10 9 9 8 9 8 7 5 5 5 6 5 4 3 4 4 1 6 8 8 8 6 5 6 6 4 3 1 3 5 7 5 5 5 6 6 6 6 5 5 8 10 10 11 12 12 13 12 12 13 13 13
12 13 10 10 12 12 11 10 9 12 13 13 13 14 15 15 14 14 14 14 13 13 12 12 11 10 10 10 10 10 9 9 9 9 8 8 8 8 8 7 7 6 5 5 5 2 2 1 7 6 6 6 6 7 8 7 6 8 4 0 2 6 5 7 7 6 6 6 6 7 6 6 7 9 10 11 12 12 12 13 13 13 13 14 14
12 14 13 11 12 12 11 10 10 12 13 12 12 12 12 13 13 13 13 13 13 13 12 12 10 10 10 10 9 9 8 8 8 6 6 6 7 7 6 6 6 5 5 5 4 5 1 5 7 8 9 9 8 6 7 8 7 6 5 5 5 5 5 6 7 7 6 6 7 7 6 5 7 9 11 12 12 12 13 13 14 14 14 14 14
11 14 13 13 13 11 11 11 10 12 11 11 11 10 10 10 10 11 12 12 12 12 12 11 11 10 9 8 9 9 8 8 7 7 5 6 5 5 5 5 5 5 5 4 5 5 6 6 7 7 8 8 7 7 7 6 6 4 4 5 5 4 5 5 7 6 6 7 8 6 7 6 9 11 12 13 13 13 13 13 14 15 15 15 15
12 14 14 13 12 11 11 11 11 11 11 9 9 8 8 9 9 9 9 9 10 10 10 10 9 9 8 7 7 8 8 7 7 6 5 5 5 4 3 4 4 4 3 4 4 4 4 5 5 5 6 6 7 7 7 7 6 5 5 5 4 5 5 5 6 6 7 7 7 6 6 7 10 12 12 13 13 13 13 14 14 14 14 15 15
12 13 13 13 12 11 11 11 10 10 10 8 8 8 7 8 8 9 9 9 9 9 9 9 8 8 8 8 7 7 6 7 5 5 5 4 3 3 2 1 2 1 1 2 2 3 3 3 3 4 4 4 5 5 5 5 4 5 4 4 4 5 8 7 5 6 7 6 5 6 5 8 10 11 12 13 13 14 14 14 15 16 15 15 15
12 11 12 11 11 11 10 9 9 10 9 9 9 9 8 8 8 8 9 8 8 8 8 7 7 8 8 7 7 7 6 6 6 5 4 4 1 3 3 3 3 4 5 5 5 4 5 5 5 4 4 3 3 4 4 5 5 4 4 5 6 7 6 5 7 7 6 6 6 6 6 8 11 12 13 13 14 14 15 15 15 15 16 17 17
8 9 10 10 12 11 11 9 10 10 10 9 8 9 8 9 8 8 8 8 8 7 6 6 5 5 4 4 4 4 5 4 4 5 3 2 4 3 6 5 5 5 7 7 6 6 5 6 6 6 5 6 4 6 6 5 4 4 5 6 6 6 5 5 7 6 6 6 6 6 6 9 11 13 13 14 15 15 15 16 16 16 16 17 17
10 9 10 10 11 11 11 10 9 10 10 8 7 6 6 7 8 8 7 7 6 7 5 6 6 5 2 3 3 5 5 5 5 2 3 1 2 4 3 3 5 5 6 8 7 7 6 6 6 6 6 6 5 5 4 3 6 6 6 7 6 5 6 7 7 7 7 6 7 6 5 9 11 13 14 15 16 16 16 16 17 17 17 17 17
9 9 8 11 9 10 11 10 9 9 10 8 6 6 7 5 6 6 5 4 6 5 6 4 4 3 3 2 3 3 2 3 5 4 2 3 2 3 3 3 1 4 4 6 3 5 6 4 4 4 5 5 5 4 6 6 5 6 8 5 5 6 8 7 7 7 7 7 7 6 6 9 12 13 14 16 16 17 16 16 17 17 18 18 18
7 4 4 3 4 8 9 8 9 9 8 7 6 5 6 4 3 4 4 2 7 8 7 7 6 5 3 1 2 1 1 2 5 3 2 3 1 2 2 4 2 5 6 6 4 0 5 3 1 4 4 3 4 3 4 5 6 7 7 6 6 7 7 7 6 7 7 7 7 6 7 10 12 14 15 16 17 17 17 17 16 16 17 18 19
5 4 6 6 6 5 1 9 8 8 8 7 6 5 5 4 3 4 7 6 7 7 7 7 7 7 7 4 4 4 4 5 5 5 4 4 5 5 5 6 6 6 9 3 3 3 2 4 2 1 4 3 5 5 5 6 6 6 6 6 7 7 7 7 6 7 7 7 7 4 6 9 12 13 15 16 17 17 16 17 17 17 16 17 18
5 5 7 6 6 5 4 5 8 7 7 7 6 4 4 7 8 6 7 6 7 6 6 6 6 6 6 6 6 7 6 7 7 7 5 7 6 5 5 5 6 7 7 5 5 5 4 4 3 3 4 4 4 4 2 2 4 5 5 5 5 6 7 7 6 7 7 7 6 4 6 8 11 13 15 15 16 17 16 17 17 17 17 16 17
5 5 5 6 5 6 4 2 8 5 5 7 7 8 7 7 8 6 6 7 6 6 6 6 6 6 5 7 7 6 6 7 7 6 7 6 6 5 5 5 5 5 6 6 6 5 6 5 5 5 5 5 5 4 3 2 2 3 4 4 4 5 5 5 6 6 7 7 7 4 6 7 10 12 14 16 16 17 18 18 17 17 18 18 17
5 7 6 7 8 8 4 1 6 10 9 10 11 9 8 8 8 8 8 6 6 6 6 6 6 7 8 7 6 6 6 7 7 6 5 5 6 6 5 5 6 5 6 5 6 6 5 5 5 6 6 5 5 5 5 5 4 4 6 7 7 7 6 6 6 7 7 7 8 7 5 7 9 12 14 16 17 17 17 18 18 19 19 18 18
9 8 6 8 9 8 9 12 9 10 10 8 9 6 7 8 8 7 8 7 8 7 7 7 7 7 9 9 8 7 7 6 5 4 5 6 6 6 6 7 6 6 6 6 7 6 6 5 6 6 6 6 6 6 7 7 7 6 7 7 7 7 6 6 6 8 8 7 7 7 5 7 8 11 12 15 17 18 18 19 19 20 19 19 19
9 7 8 7 7 7 10 9 9 9 10 9 7 7 7 8 8 8 8 8 7 8 9 8 8 8 8 9 9 8 7 6 6 6 6 7 6 7 7 7 7 7 7 7 6 6 6 6 5 6 6 6 6 6 6 6 6 6 6 6 6 7 6 6 7 8 8 8 7 7 7 6 7 8 12 13 17 19 18 19 19 20 20 20 20
9 10 8 7 7 8 10 8 9 9 10 11 8 8 8 9 8 7 8 9 8 8 8 8 8 9 9 10 9 9 8 7 7 7 6 6 7 7 6 6 6 7 6 6 6 6 6 6 6 6 5 6 6 6 6 6 6 6 6 6 6 6 6 6 7 8 8 7 7 8 9 8 5 6 8 13 16 18 19 20 21 21 21 21 22
9 9 7 6 8 10 9 8 7 9 12 12 10 8 8 9 9 8 9 9 7 7 8 8 9 9 9 9 9 8 8 7 7 7 7 7 7 7 7 7 7 6 7 7 6 6 6 5 6 5 6 6 5 6 6 5 6 6 6 7 6 6 6 6 7 8 8 7 8 8 8 10 9 10 9 12 14 20 21 21 21 22 23 23 24
7 8 8 8 8 8 8 8 7 8 12 12 10 7 7 9 9 9 8 8 8 8 8 8 8 8 9 10 10 9 8 7 7 8 7 7 8 8 8 8 7 7 7 7 7 6 6 6 6 5 6 6 6 7 6 6 6 6 6 7 6 6 6 6 7 7 8 7 7 8 8 9 10 11 10 11 13 20 21 21 22 21 21 22 23
6 7 8 10 7 5 6 6 6 10 12 11 11 9 8 9 9 8 9 9 8 9 9 8 8 8 9 10 10 10 9 8 7 8 7 7 7 8 8 7 7 8 7 7 7 6 6 7 7 6 7 7 7 7 7 7 7 6 7 7 6 6 5 5 9 7 7 7 7 7 8 9 10 10 10 12 14 17 19 22 21 21 21 22 23
7 7 9 8 10 9 5 7 7 8 11 12 12 11 9 10 10 9 9 8 8 9 8 8 8 8 8 10 11 10 10 9 8 8 8 7 7 7 8 8 8 7 7 7 7 7 7 8 8 7 6 7 7 7 7 6 7 7 7 6 6 6 5 7 8 7 7 7 7 7 9 10 10 10 11 11 13 15 14 21 22 20 20 23 23
9 7 7 8 9 9 8 10 9 11 12 11 11 10 11 11 10 10 9 10 9 9 9 9 8 8 9 9 11 10 10 9 9 8 7 8 8 8 8 8 8 7 7 8 8 8 8 7 8 8 7 7 7 7 6 6 6 6 6 5 5 5 4 6 7 7 6 6 7 8 9 10 9 10 12 11 11 11 13 20 21 19 20 22 22
9 9 8 8 10 7 7 10 12 13 14 14 13 12 11 12 11 11 11 10 9 9 9 8 9 9 8 8 9 9 10 10 10 9 8 9 8 8 8 9 8 8 8 8 8 8 8 7 7 8 7 7 7 8 7 6 6 6 6 6 5 3 3 5 7 7 5 7 7 8 9 10 9 12 11 11 10 9 14 18 18 17 20 19 21
10 10 9 8 9 7 6 5 8 10 11 11 11 10 10 11 10 10 11 10 10 9 8 9 9 8 8 8 9 9 10 11 11 10 9 9 9 8 8 10 9 8 8 8 8 8 8 8 7 7 7 8 8 9 10 8 7 6 6 6 5 2 3 5 7 7 6 7 8 9 9 9 8 11 11 10 10 10 12 14 15 16 16 16 19
9 11 11 9 8 8 7 9 8 8 11 11 12 12 11 11 10 9 10 10 10 10 9 9 8 8 9 9 9 9 10 12 12 11 9 9 9 9 9 10 9 8 8 8 8 9 9 8 8 8 7 7 9 9 10 10 8 7 6 5 4 3 3 6 8 8 6 8 8 9 9 9 9 11 12 10 8 11 12 11 11 11 12 15 16
10 10 11 11 9 8 8 9 9 9 7 8 8 8 7 7 8 7 10 10 10 9 9 9 9 9 10 10 10 10 11 11 12 11 10 9 8 9 9 9 9 8 9 10 9 9 11 10 9 9 9 7 9 9 11 11 8 8 5 3 3 3 4 6 10 11 6 8 7 8 9 8 10 11 12 9 9 12 11 11 11 11 10 12 13
11 11 11 11 10 8 8 10 8 8 8 7 6 6 7 7 8 9 9 8 8 9 10 9 10 9 11 11 11 10 11 11 11 10 10 9 9 9 9 10 9 9 9 10 10 10 10 10 8 7 9 9 9 11 13 11 8 7 4 4 2 3 4 7 12 11 6 8 7 9 9 9 11 12 10 8 11 12 10 11 11 10 10 10 11
10 12 11 9 8 10 10 9 8 8 8 7 7 8 8 7 7 7 8 8 8 8 9 9 9 9 11 11 10 11 11 11 10 10 10 10 9 9 9 9 9 8 9 9 10 10 11 11 9 7 7 9 8 12 12 11 6 9 9 7 2 3 3 7 10 12 6 9 7 9 9 9 12 12 10 9 12 12 11 11 11 11 11 11 10
8 10 10 9 9 9 9 9 8 7 7 8 8 8 9 9 9 8 9 9 9 9 9 9 9 10 11 11 11 11 10 11 12 11 9 10 9 9 9 9 10 8 8 9 10 11 10 11 11 9 7 7 7 9 13 13 8 10 6 6 6 7 1 3 10 12 5 9 6 10 9 10 14 13 9 10 11 11 10 11 12 11 11 11 10
7 8 8 8 9 9 9 9 8 6 6 7 9 10 12 12 11 11 10 9 9 8 9 10 10 11 11 11 11 11 11 11 11 10 9 10 10 9 8 8 9 9 8 8 10 11 10 10 10 10 9 7 8 9 11 13 11 11 7 6 6 5 7 5 14 12 3 10 6 10 9 10 12 12 8 11 11 11 11 11 12 12 12 11 12
8 10 7 5 6 9 10 10 8 7 7 8 7 8 10 10 9 11 9 9 8 7 7 9 9 9 10 11 10 11 11 10 10 11 10 10 10 9 9 8 9 9 8 8 9 10 10 9 10 9 11 8 7 7 8 10 13 11 7 6 4 5 5 9 14 5 6 9 6 9 8 11 12 11 9 10 10 10 11 11 11 11 12 13 12
10 9 6 6 8 9 10 10 8 6 7 8 8 7 6 6 5 6 6 6 7 7 8 8 8 9 9 8 10 11 10 10 10 10 11 10 10 10 9 9 9 8 8 8 8 8 10 10 10 8 9 9 6 7 7 8 8 10 10 7 4 4 8 10 9 8 11 3 6 7 7 10 10 9 8 10 11 11 11 10 12 11 11 12 12
9 7 6 9 10 9 9 7 5 6 7 8 8 7 8 8 9 9 8 7 8 8 7 8 8 8 7 9 9 10 10 10 10 10 10 10 10 9 9 9 8 7 7 7 8 9 8 9 8 8 8 7 8 7 8 8 5 7 6 5 4 3 5 6 6 9 12 7 7 11 9 11 12 9 9 10 10 11 10 10 12 10 11 12 12
6 5 7 8 8 7 6 5 4 6 7 8 9 6 7 8 9 9 9 9 9 9 9 8 8 7 8 8 8 8 9 9 9 9 9 9 9 9 8 8 8 8 8 8 8 8 7 7 8 8 7 7 8 7 7 7 7 6 6 5 4 3 4 3 3 5 7 12 14 8 7 12 11 8 10 11 12 11 10 11 11 9 10 11 10
5 6 7 6 6 6 6 6 7 7 7 9 7 8 8 8 8 8 10 9 9 8 7 7 7 7 9 8 8 7 8 9 9 9 9 9 8 8 8 8 8 8 8 7 7 8 8 8 9 8 9 7 7 7 6 6 6 6 6 6 5 5 4 3 3 5 7 10 11 11 15 13 9 8 10 9 10 10 9 11 9 9 10 11 10
6 6 7 6 6 6 7 9 9 7 7 9 9 10 9 8 9 9 11 9 7 7 6 7 7 7 8 8 7 7 7 7 8 9 8 9 9 8 8 8 8 7 7 7 7 8 8 8 8 8 8 8 7 7 7 6 5 6 6 6 6 6 5 4 5 7 7 6 9 13 11 15 15 12 10 11 12 10 9 10 9 9 10 10 10
6 6 6 6 6 7 7 10 9 7 8 9 10 9 8 8 9 9 10 9 8 7 7 7 6 7 7 7 7 7 6 7 7 7 8 8 8 8 7 8 7 7 7 7 7 7 6 7 7 8 8 9 7 6 6 7 6 6 7 6 6 6 6 7 7 7 8 9 10 10 11 10 12 14 10 11 10 10 10 10 9 10 11 10 10
Wind_Direction
154 143 139 133 137 142 135 134 131 127 122 119 116 118 118 120 124 127 128 128 127 125 122 121 122 122 120 118 119 124 123 123 115 100 96 97 100 98 88 83 75 75 74 70 72 70 71 69 69 71 73 72 71 72 72 76 75 75 76 75 74 71 67 60 54 47 41 34 34 37 35 42 51 61 48 46 37 43 33 26 9 330 333 49 31
151 143 137 136 136 139 135 133 129 127 122 119 116 117 116 116 123 130 132 130 132 130 131 113 113 118 121 121 117 112 103 94 98 101 104 100 93 93 90 82 80 78 76 72 69 70 69 71 70 65 67 71 68 69 70 70 73 73 74 72 71 68 65 61 57 50 43 34 27 29 24 29 28 11 46 42 42 38 12 14 15 319 36 18 43
143 143 137 136 143 141 133 130 132 128 122 119 117 118 118 116 121 125 132 130 105 105 109 111 118 118 115 118 120 117 112 105 101 100 101 102 98 94 90 88 88 87 81 71 64 60 58 59 59 63 65 69 69 69 70 69 68 69 71 70 67 66 63 59 53 49 43 35 26 17 37 58 358 10 15 63 35 45 29 20 7 308 40 2 321
142 142 138 136 141 135 133 134 129 125 126 123 118 120 121 121 121 122 125 116 114 119 123 123 116 122 122 119 113 112 111 108 102 92 94 95 96 90 86 85 82 76 74 73 67 62 58 59 61 64 66 67 67 68 68 67 66 63 64 66 67 64 57 54 49 46 42 36 20 316 42 36 45 43 337 12 38 91 74 46 3 5 16 352 344
144 143 139 141 140 131 132 128 129 131 129 125 120 122 124 128 127 124 122 105 110 110 110 122 124 121 123 120 116 115 110 109 104 100 98 95 93 92 92 88 84 80 76 71 66 61 58 57 58 59 65 69 72 69 66 66 62 60 58 58 58 65 56 48 44 35 27 28 8 298 37 33 357 59 331 315 347 353 142 337 342 337 21 14 21
144 142 143 140 136 134 131 132 135 128 128 125 123 122 128 132 134 129 118 113 114 119 122 116 119 123 127 123 117 110 110 110 104 102 99 93 87 84 83 81 81 79 77 73 68 62 58 54 56 61 61 63 70 69 66 64 59 54 50 49 54 56 59 48 38 30 10 327 270 350 15 13 24 23 12 332 337 347 300 260 263 253 213 279 337
143 144 142 137 138 134 134 130 130 130 131 125 123 124 125 127 126 120 103 112 114 118 117 115 115 116 116 117 116 113 107 112 108 98 94 89 82 81 79 77 74 72 70 68 65 60 55 50 47 43 44 63 66 64 65 59 54 49 51 48 50 54 53 44 39 24 358 298 6 353 6 3 6 326 27 346 326 326 300 287 253 264 274 287 298
142 141 141 135 135 137 131 126 129 130 126 126 127 128 129 128 128 107 117 112 112 110 111 111 109 111 117 116 114 115 112 113 111 108 102 94 89 84 80 79 77 74 65 56 53 52 48 45 45 43 42 55 73 69 53 37 24 32 34 44 43 50 48 33 30 3 320 313 344 358 343 345 339 316 30 342 331 337 343 312 300 300 285 231 266
140 142 136 134 133 136 134 131 131 133 130 129 128 130 132 136 117 114 110 107 109 106 97 97 94 102 105 108 110 111 117 120 115 109 102 97 93 87 81 79 80 77 69 61 60 61 57 51 51 44 53 52 56 47 42 35 27 23 32 39 30 47 36 35 22 327 244 352 329 350 345 340 322 315 1 338 327 327 346 332 290 286 274 259 247
144 141 132 137 137 135 130 126 130 131 131 131 130 131 138 123 116 114 111 112 106 104 108 107 106 102 100 102 106 116 116 118 105 106 105 99 97 93 88 83 75 75 77 70 63 60 64 56 57 46 41 47 44 35 37 40 35 40 37 26 30 48 20 17 289 224 357 359 341 316 31 348 310 304 331 325 318 321 330 329 329 319 300 304 275
135 141 139 134 132 126 123 124 128 131 132 131 132 129 115 118 121 120 113 110 106 108 109 112 116 114 116 114 114 105 92 96 109 106 104 106 104 102 94 88 86 85 89 83 64 52 53 64 57 60 46 38 34 30 28 31 30 34 26 20 17 41 24 355 278 16 358 350 352 339 341 202 281 295 334 317 311 311 317 315 311 313 304 269 254
144 145 132 127 126 123 122 126 129 133 134 132 126 121 123 122 120 116 111 106 106 102 101 103 107 110 111 115 116 107 107 111 104 113 107 106 101 97 97 93 86 69 75 74 83 53 46 62 47 50 57 63 45 35 38 360 4 9 13 354 1 61 342 333 293 347 338 339 340 334 320 313 318 318 326 302 301 304 306 305 304 302 302 305 304
138 137 130 139 133 123 124 127 130 136 132 121 117 121 122 121 118 116 118 113 108 102 100 99 102 103 102 103 106 109 103 102 103 108 115 107 92 84 83 74 64 62 68 66 96 69 45 50 55 47 42 48 49 24 15 9 348 350 360 15 30 88 234 286 310 317 327 332 330 317 323 306 299 325 307 299 292 292 296 298 300 300 301 303 300
148 138 141 137 133 123 124 126 133 128 114 118 121 121 122 120 121 120 115 109 103 100 96 96 99 104 103 101 103 102 102 104 103 97 88 80 82 88 80 71 66 64 45 40 62 109 73 49 63 206 22 13 11 6 10 8 355 337 40 58 149 240 285 259 278 307 317 316 319 322 315 311 313 330 307 300 296 294 291 290 290 288 289 289 288
144 136 121 130 140 134 122 125 121 117 119 121 125 125 126 126 120 116 115 111 106 102 98 96 98 100 100 101 100 99 97 93 94 88 87 91 88 79 73 65 62 59 59 42 30 113 109 311 3 9 6 7 2 355 350 350 351 353 13 333 278 302 306 320 316 319 318 319 320 322 320 312 328 307 305 307 302 297 294 291 289 288 287 285 285
147 134 136 142 140 137 135 120 115 119 122 125 130 133 130 127 125 123 122 119 115 108 102 96 97 102 106 104 98 94 97 99 98 96 90 88 84 75 69 65 57 53 48 37 14 16 272 333 355 359 349 340 348 342 348 344 343 338 338 332 324 316 304 311 321 320 318 324 326 323 320 319 319 301 307 313 306 301 296 293 289 289 288 287 286
155 140 140 145 142 141 135 141 123 118 123 131 134 134 130 126 126 127 129 124 118 113 108 105 103 105 105 110 107 104 102 104 99 97 94 90 85 70 57 52 49 41 39 24 15 1 350 352 354 354 349 350 350 352 346 339 327 308 314 313 319 318 314 308 319 321 323 329 322 321 323 319 334 313 314 310 306 305 300 297 295 293 290 289 287
146 148 143 147 147 139 138 138 137 140 133 128 127 127 128 125 123 125 119 113 114 113 108 105 103 103 104 102 108 109 106 106 106 100 103 94 91 84 67 40 46 33 18 9 8 358 348 346 342 331 335 345 356 353 341 327 319 313 318 327 330 324 293 278 299 321 324 320 312 322 311 337 319 307 312 310 308 304 302 301 298 294 290 287 287
153 147 147 148 144 138 140 143 148 145 146 147 145 130 122 123 119 117 116 118 121 117 116 110 107 104 109 108 106 113 115 113 108 103 100 109 104 155 97 63 20 20 330 316 295 306 305 301 301 305 306 319 331 333 323 316 308 314 321 322 307 286 287 257 318 324 317 312 319 312 313 317 298 301 301 307 307 306 302 301 301 301 296 291 289
147 142 144 146 146 142 144 147 148 151 154 149 148 147 135 128 119 120 126 127 124 115 116 116 119 126 121 133 127 132 135 123 123 135 111 109 118 334 80 353 332 327 318 301 295 293 298 296 298 295 299 290 295 277 269 267 282 295 292 295 283 291 270 334 327 323 321 320 315 309 320 296 296 298 300 308 308 307 305 302 298 297 296 294 291
137 137 143 148 150 147 150 147 154 155 153 152 150 148 130 129 130 127 132 134 133 137 123 129 139 124 130 104 171 140 109 113 147 90 162 83 6 344 18 358 339 331 327 317 321 325 327 318 311 302 296 299 287 288 259 259 249 258 288 259 272 261 346 335 340 337 345 338 331 333 294 285 293 298 304 313 315 312 309 305 301 298 296 294 292
142 144 151 152 153 152 156 153 155 158 156 151 149 148 147 171 146 150 151 155 155 143 167 134 131 109 111 171 127 108 103 101 102 92 93 57 153 27 341 2 330 334 329 319 345 324 309 318 326 331 322 318 308 290 321 235 233 255 266 278 259 333 335 335 331 329 331 331 334 329 277 285 292 298 304 312 318 319 318 315 307 301 299 297 294
142 142 150 155 157 156 160 157 157 160 158 155 152 155 164 157 154 154 152 171 165 155 109 87 82 75 66 84 129 105 88 90 55 34 343 24 3 348 342 345 329 320 311 305 306 301 316 337 325 333 312 283 282 310 317 322 329 219 234 249 326 332 332 325 325 326 321 323 314 315 284 293 301 305 306 309 314 319 320 320 316 309 303 300 297
47 37 81 88 121 158 162 158 158 163 166 163 162 166 159 153 140 158 163 122 53 58 53 41 36 35 33 46 65 71 28 40 88 68 10 10 69 133 7 274 182 184 347 291 179 109 306 197 209 293 261 315 335 315 329 331 328 337 339 333 330 332 325 327 325 323 322 321 310 300 297 298 302 306 307 307 313 316 321 323 323 319 312 307 303
28 37 63 57 35 12 227 167 161 164 169 164 168 159 157 152 115 63 58 57 57 51 51 51 39 33 32 32 56 69 76 66 46 51 30 50 42 29 33 25 16 14 353 336 340 16 340 4 15 303 3 343 347 349 346 341 338 339 340 339 332 332 328 326 324 323 324 325 324 316 297 299 304 306 309 310 315 318 319 318 321 324 320 314 309
17 45 45 51 27 5 349 190 171 165 167 170 167 108 79 72 71 64 71 65 69 63 50 43 33 16 27 37 53 56 62 61 50 46 41 49 49 37 39 37 30 21 11 9 6 358 351 358 349 343 348 354 352 346 337 322 338 337 335 335 326 327 331 329 328 325 328 330 319 323 296 295 300 306 315 315 317 321 321 321 325 324 322 322 317
30 38 40 47 19 21 0 237 173 151 76 50 68 79 80 77 80 67 68 63 68 64 62 50 42 29 29 52 56 40 51 58 53 42 47 50 63 51 46 41 37 18 23 19 25 13 5 355 350 345 343 346 348 344 318 313 316 303 305 313 321 316 316 321 326 333 335 337 339 315 298 295 307 311 317 324 325 324 326 329 328 324 325 328 328
44 29 38 34 34 20 13 107 77 76 76 84 82 87 96 87 82 77 73 66 71 67 62 57 54 49 37 43 56 62 61 62 49 33 33 41 40 38 40 41 34 27 20 24 20 21 17 7 1 357 354 357 355 352 349 343 340 336 337 342 339 336 331 332 345 349 348 346 348 8 339 318 314 319 323 334 331 334 335 334 331 332 333 332 330
39 24 31 43 32 31 73 81 75 83 86 79 74 69 77 82 83 76 70 60 62 62 56 50 49 44 41 35 39 55 56 57 44 23 30 42 39 37 37 36 33 28 22 28 22 17 14 11 13 6 9 15 7 6 347 357 355 358 351 348 343 337 329 335 347 357 357 352 353 6 350 329 318 325 328 336 344 346 346 341 338 336 337 337 336
27 22 34 42 37 21 62 65 75 83 85 73 72 70 66 76 72 69 71 64 58 53 55 52 47 45 41 32 29 39 45 48 47 44 45 41 37 38 39 33 32 24 20 22 11 11 13 17 14 22 22 15 17 13 357 7 2 359 356 345 341 340 341 346 357 1 1 2 356 352 10 341 336 326 346 341 360 0 356 353 350 345 343 344 343
21 28 33 33 38 36 49 52 72 84 88 82 66 71 71 70 68 68 68 66 60 58 55 51 46 44 39 34 36 38 42 41 46 45 45 38 36 36 34 35 31 24 18 16 15 10 14 17 5 12 12 18 20 12 0 4 4 359 356 348 341 341 351 358 4 12 10 360 358 9 18 29 15 341 356 6 14 13 9 5 1 358 356 351 351
27 26 27 24 47 44 42 42 49 90 92 89 83 68 71 73 68 70 65 65 64 64 62 57 53 46 36 37 37 35 40 44 38 40 39 41 38 36 36 31 27 21 23 17 10 9 12 7 8 9 13 18 13 8 358 355 355 356 345 347 343 349 357 4 12 26 5 358 11 12 20 22 38 36 19 25 27 21 16 14 14 11 7 6 4
29 30 25 28 38 54 41 27 49 68 92 92 87 76 74 78 77 70 70 68 63 61 59 56 56 49 39 39 38 34 33 33 32 34 43 43 41 36 33 28 25 23 19 13 14 14 19 14 14 12 19 15 11 6 359 356 354 350 345 347 344 357 0 9 24 31 4 8 16 19 25 22 14 21 28 43 38 24 18 18 17 16 14 11 6
15 33 31 40 27 58 54 38 44 77 77 85 87 84 79 78 75 71 67 67 63 64 59 54 53 49 46 39 38 34 33 31 33 38 40 44 40 37 34 30 23 20 19 13 17 15 17 18 11 13 22 17 9 5 357 358 354 347 347 347 349 358 5 19 42 19 8 16 20 20 26 23 11 14 12 25 29 24 17 18 14 13 14 11 6
13 30 39 46 44 32 56 68 38 60 80 83 81 81 79 78 72 68 64 62 64 62 57 52 48 47 43 42 36 33 31 31 34 43 43 43 42 39 33 28 17 17 20 18 14 17 20 21 14 12 15 14 7 2 355 350 346 344 343 343 349 353 6 43 36 16 15 17 21 24 31 22 9 19 12 9 5 13 19 18 8 7 11 7 2
20 16 39 46 53 48 38 76 64 61 63 71 79 78 76 73 71 67 67 62 63 58 55 51 48 45 43 44 37 33 30 30 38 43 48 43 43 39 31 21 16 20 24 21 21 21 16 17 21 13 8 8 1 357 348 342 339 333 336 336 342 346 23 62 32 20 18 21 22 34 30 19 12 26 16 5 355 359 25 14 3 2 8 3 1
19 21 27 39 45 41 61 60 70 73 73 71 72 74 73 73 70 66 65 62 60 58 54 53 50 45 42 41 39 39 31 30 35 40 45 43 40 38 29 21 20 24 24 25 25 18 14 11 19 15 14 0 358 351 347 345 337 330 330 332 336 343 51 64 34 13 23 29 25 36 25 16 20 31 12 358 356 357 22 2 355 0 1 1 0
21 24 24 39 47 29 27 59 76 75 77 72 70 73 72 74 74 71 69 65 58 58 56 54 50 49 43 38 36 39 34 32 34 36 43 41 41 36 30 22 23 23 26 25 26 18 15 13 13 14 11 9 1 354 347 341 329 325 325 330 336 359 73 67 34 15 29 30 27 32 23 10 27 25 8 355 357 13 5 353 357 359 355 357 357
25 23 23 27 43 34 32 34 46 68 85 84 80 76 75 76 74 74 71 68 63 57 53 53 50 47 44 38 35 38 35 34 34 33 37 36 38 35 31 26 26 28 27 24 22 18 15 15 17 9 11 21 5 356 346 331 321 319 317 325 338 358 82 71 33 22 27 30 22 33 20 12 27 16 1 357 3 17 357 357 2 351 350 356 350
29 25 24 16 25 39 41 40 32 39 40 80 84 81 79 71 74 73 65 59 59 57 52 52 47 47 40 40 38 39 37 36 33 33 36 36 38 35 33 28 30 29 30 27 22 18 11 10 13 13 9 15 19 1 353 335 322 315 308 318 342 350 92 67 39 22 21 25 20 30 17 14 25 7 358 355 17 8 356 359 354 349 346 348 348
37 30 26 19 18 25 35 44 26 30 47 38 61 86 91 88 77 68 72 68 63 60 56 50 48 45 41 41 41 40 37 39 36 35 35 35 40 38 34 30 29 32 33 31 24 20 17 13 4 14 15 16 19 7 0 337 343 343 340 331 323 350 105 66 38 18 16 21 22 29 14 19 18 0 355 359 15 358 355 356 351 346 348 346 346
40 40 30 12 23 29 33 40 33 28 51 61 70 67 66 71 79 74 76 68 61 58 60 54 49 46 43 41 40 39 40 40 38 37 36 35 38 39 36 31 27 31 35 33 28 25 23 21 14 14 22 23 28 13 10 355 15 352 331 338 346 344 129 65 34 13 4 19 21 27 13 22 13 357 349 12 4 355 357 353 347 346 346 345 355
46 50 31 15 27 35 27 30 36 31 35 49 64 74 76 74 81 83 80 79 67 68 69 65 60 55 48 45 42 40 39 42 40 38 38 35 38 41 38 35 33 28 31 32 29 28 24 22 21 21 8 32 32 25 20 21 1 333 312 314 357 353 204 160 15 355 11 11 23 24 15 20 7 356 352 12 358 356 354 350 346 345 348 348 13
52 44 42 12 28 33 29 32 34 36 46 63 73 78 86 87 83 83 78 82 87 79 74 69 64 59 52 46 42 38 38 43 40 41 41 40 39 39 39 36 34 31 32 33 32 29 25 24 21 24 18 23 26 27 29 23 18 1 16 345 313 328 335 359 344 331 6 2 31 14 16 12 4 356 2 7 358 354 350 347 347 348 348 2 11
64 51 35 22 34 40 31 25 25 26 42 51 71 97 97 92 92 94 94 89 81 78 77 66 60 58 57 46 40 39 40 42 42 41 41 39 39 38 38 37 36 32 33 35 34 31 28 26 22 27 27 21 23 24 32 31 29 24 11 355 357 352 4 326 326 302 24 344 24 11 16 12 3 354 2 0 356 354 349 347 350 350 357 9 5
57 56 43 34 40 44 46 34 20 17 38 56 53 49 57 88 102 101 97 86 74 60 58 60 57 56 56 56 48 41 42 42 41 41 40 39 39 38 37 37 36 34 33 36 35 33 29 26 24 22 28 25 15 30 28 31 42 33 27 34 15 346 328 325 333 322 331 332 354 356 9 12 2 350 0 355 355 353 348 346 352 353 6 2 356
56 60 59 53 46 40 50 56 36 23 19 41 59 72 66 66 73 76 82 88 91 75 74 70 71 66 66 62 56 47 42 43 42 41 41 41 42 40 38 40 40 39 36 37 37 33 31 28 21 26 27 24 21 34 29 17 28 42 30 31 19 358 331 330 348 324 328 331 339 339 351 359 356 352 357 354 355 351 344 354 347 356 1 356 346
84 75 71 66 61 59 57 61 63 55 38 32 43 57 84 82 85 84 81 81 81 87 79 76 73 73 72 65 63 57 49 45 44 42 40 40 41 41 39 40 42 39 37 38 34 31 29 28 26 25 26 30 27 29 24 23 23 14 15 14 5 351 339 346 342 341 307 309 319 328 335 345 346 351 354 351 353 349 346 351 345 358 358 347 340
92 86 79 83 87 84 70 60 56 52 49 52 51 49 64 75 84 85 85 79 84 84 85 83 81 78 77 72 70 66 60 52 45 44 41 40 39 39 38 40 38 37 36 35 33 30 29 25 22 26 23 24 30 25 24 22 19 13 0 6 0 1 355 350 345 338 329 317 311 333 328 333 334 345 348 349 348 341 345 344 342 357 351 346 346
100 86 83 81 81 74 66 63 57 49 50 56 57 55 58 69 74 79 90 92 92 93 90 90 87 83 79 74 71 66 60 56 49 42 40 38 36 35 37 37 38 34 34 29 26 27 25 25 23 24 22 23 24 26 25 13 11 13 4 356 0 359 359 359 355 345 326 309 307 319 328 330 332 337 340 343 341 339 343 339 340 352 346 343 346
101 100 90 83 72 69 69 67 64 55 52 62 67 63 59 65 78 85 90 96 96 101 102 91 88 87 82 77 73 67 59 54 49 43 38 32 36 35 34 35 36 33 29 27 24 17 19 20 19 20 26 21 17 13 21 17 1 9 4 4 3 4 353 350 347 344 335 329 321 317 323 327 324 319 335 334 329 333 339 334 341 345 344 342 345